Time,TemperatureF,DewpointF,PressureIn,WindDirection,WindDirectionDegrees,WindSpeedMPH,WindSpeedGustMPH,Humidity,HourlyPrecipIn,Conditions,Clouds,dailyrainin,SoftwareType,DateUTC
2013-01-02 00:00:00,34.6,34.6,30.22,NE,44,0.0,0.0,100,0.00,,,0.01,Wunderground v.1.15,2013-01-02 08:00:00,
2013-01-02 00:05:00,34.7,34.7,30.22,NE,44,0.0,0.0,100,0.00,,,0.01,Wunderground v.1.15,2013-01-02 08:05:00,
2013-01-02 00:10:00,34.6,34.6,30.22,NE,44,0.0,0.0,100,0.00,,,0.01,Wunderground v.1.15,2013-01-02 08:10:00,
2013-01-02 00:15:00,34.5,34.5,30.22,NE,44,0.0,0.0,100,0.00,,,0.01,Wunderground v.1.15,2013-01-02 08:15:00,
2013-01-02 00:20:00,34.4,34.4,30.21,NE,44,0.0,0.0,100,0.00,,,0.01,Wunderground v.1.15,2013-01-02 08:20:00,
2013-01-02 00:25:00,34.4,34.4,30.21,NE,44,0.0,0.0,100,0.00,,,0.01,Wunderground v.1.15,2013-01-02 08:25:00,
2013-01-02 00:35:00,34.1,34.1,30.21,NE,44,0.0,0.0,100,0.00,,,0.01,Wunderground v.1.15,2013-01-02 08:35:00,
2013-01-02 00:40:00,34.0,34.0,30.21,NE,44,0.0,0.0,100,0.00,,,0.01,Wunderground v.1.15,2013-01-02 08:40:00,
2013-01-02 00:45:00,34.0,34.0,30.21,NE,44,0.0,0.0,100,0.00,,,0.00,Wunderground v.1.15,2013-01-02 08:45:00,
2013-01-02 00:50:00,33.9,33.9,30.21,NE,44,0.0,0.0,100,0.00,,,0.00,Wunderground v.1.15,2013-01-02 08:50:00,
2013-01-02 00:55:00,33.9,33.9,30.21,NE,44,0.0,0.0,100,0.00,,,0.00,Wunderground v.1.15,2013-01-02 08:55:00,
2013-01-02 01:00:00,33.9,33.9,30.21,NE,44,0.0,0.0,100,0.00,,,0.00,Wunderground v.1.15,2013-01-02 09:00:00,
2013-01-02 01:10:00,33.8,33.8,30.21,NE,44,0.0,0.0,100,0.00,,,0.00,Wunderground v.1.15,2013-01-02 09:10:00,
2013-01-02 01:15:00,33.8,33.8,30.21,NE,44,0.0,0.0,100,0.00,,,0.00,Wunderground v.1.15,2013-01-02 09:15:00,
2013-01-02 01:20:00,33.7,33.7,30.20,NE,44,0.0,0.0,100,0.00,,,0.00,Wunderground v.1.15,2013-01-02 09:20:00,
2013-01-02 01:25:00,33.5,33.5,30.20,NE,44,0.0,0.0,100,0.00,,,0.00,Wunderground v.1.15,2013-01-02 09:25:00,
2013-01-02 01:30:00,33.5,33.5,30.20,NE,44,0.0,0.0,100,0.00,,,0.00,Wunderground v.1.15,2013-01-02 09:30:00,
2013-01-02 01:35:00,33.3,33.3,30.20,NE,44,0.0,0.0,100,0.00,,,0.00,Wunderground v.1.15,2013-01-02 09:35:00,
2013-01-02 01:45:00,33.2,33.2,30.20,NE,44,0.0,0.0,100,0.00,,,0.00,Wunderground v.1.15,2013-01-02 09:45:00,
2013-01-02 01:50:00,33.1,33.1,30.20,NE,44,0.0,0.0,100,0.00,,,0.00,Wunderground v.1.15,2013-01-02 09:50:00,
2013-01-02 01:55:00,33.0,33.0,30.20,NE,44,0.0,0.0,100,0.00,,,0.00,Wunderground v.1.15,2013-01-02 09:55:00,
2013-01-02 02:05:00,33.0,33.0,30.20,NE,44,0.0,0.0,100,0.00,,,0.00,Wunderground v.1.15,2013-01-02 10:05:00,
2013-01-02 02:10:00,32.9,32.9,30.20,NE,44,0.0,0.0,100,0.00,,,0.00,Wunderground v.1.15,2013-01-02 10:10:00,
2013-01-02 02:15:00,32.9,32.9,30.20,NE,44,0.0,0.0,100,0.00,,,0.00,Wunderground v.1.15,2013-01-02 10:15:00,
2013-01-02 02:20:00,32.9,32.9,30.20,NE,44,0.0,0.0,100,0.00,,,0.00,Wunderground v.1.15,2013-01-02 10:20:00,
2013-01-02 02:25:00,32.9,32.9,30.20,NE,44,0.0,0.0,100,0.00,,,0.00,Wunderground v.1.15,2013-01-02 10:25:00,
2013-01-02 02:35:00,32.8,32.8,30.20,NE,44,0.0,0.0,100,0.00,,,0.00,Wunderground v.1.15,2013-01-02 10:35:00,
2013-01-02 02:40:00,32.7,32.7,30.20,NE,44,0.0,0.0,100,0.00,,,0.00,Wunderground v.1.15,2013-01-02 10:40:00,
2013-01-02 02:45:00,32.7,32.7,30.20,NE,44,0.0,0.0,100,0.00,,,0.00,Wunderground v.1.15,2013-01-02 10:45:00,
2013-01-02 02:50:00,32.6,32.6,30.19,NE,44,0.0,0.0,100,0.00,,,0.00,Wunderground v.1.15,2013-01-02 10:50:00,
2013-01-02 02:55:00,32.5,32.5,30.19,NE,44,0.0,0.0,100,0.00,,,0.00,Wunderground v.1.15,2013-01-02 10:55:00,
2013-01-02 03:05:00,32.5,32.5,30.19,NE,44,0.0,0.0,100,0.00,,,0.00,Wunderground v.1.15,2013-01-02 11:05:00,
2013-01-02 03:10:00,32.3,32.3,30.19,NE,44,0.0,0.0,100,0.00,,,0.00,Wunderground v.1.15,2013-01-02 11:10:00,
2013-01-02 03:15:00,32.3,32.3,30.19,NE,44,0.0,0.0,100,0.00,,,0.00,Wunderground v.1.15,2013-01-02 11:15:00,
2013-01-02 03:20:00,32.3,32.3,30.19,NE,44,0.0,0.0,100,0.00,,,0.00,Wunderground v.1.15,2013-01-02 11:20:00,
2013-01-02 03:30:00,32.3,32.3,30.19,NE,44,0.0,1.0,100,0.00,,,0.00,Wunderground v.1.15,2013-01-02 11:30:00,
2013-01-02 03:35:00,32.2,32.2,30.19,NE,44,0.0,1.0,100,0.00,,,0.00,Wunderground v.1.15,2013-01-02 11:35:00,
2013-01-02 03:40:00,32.2,32.2,30.19,NE,44,0.0,0.0,100,0.00,,,0.00,Wunderground v.1.15,2013-01-02 11:40:00,
2013-01-02 03:45:00,32.1,32.1,30.19,NE,44,0.0,0.0,100,0.00,,,0.00,Wunderground v.1.15,2013-01-02 11:45:00,
2013-01-02 03:55:00,32.1,32.1,30.19,NE,42,0.0,0.0,100,0.00,,,0.00,Wunderground v.1.15,2013-01-02 11:55:00,
2013-01-02 04:00:00,32.1,32.1,30.19,NE,42,0.0,0.0,100,0.00,,,0.00,Wunderground v.1.15,2013-01-02 12:00:00,
2013-01-02 04:05:00,32.1,32.1,30.19,NE,42,0.0,1.0,100,0.00,,,0.00,Wunderground v.1.15,2013-01-02 12:05:00,
2013-01-02 04:10:00,32.1,32.1,30.19,NE,42,0.0,1.0,100,0.00,,,0.00,Wunderground v.1.15,2013-01-02 12:10:00,
2013-01-02 04:15:00,32.1,32.1,30.19,NE,42,0.0,1.0,100,0.00,,,0.00,Wunderground v.1.15,2013-01-02 12:15:00,
2013-01-02 04:25:00,32.1,32.1,30.20,NE,42,0.0,1.0,100,0.00,,,0.00,Wunderground v.1.15,2013-01-02 12:25:00,
2013-01-02 04:30:00,32.1,32.1,30.20,NE,42,0.0,1.0,100,0.00,,,0.00,Wunderground v.1.15,2013-01-02 12:30:00,
2013-01-02 04:35:00,32.1,32.1,30.20,NE,42,0.0,1.0,100,0.00,,,0.00,Wunderground v.1.15,2013-01-02 12:35:00,
2013-01-02 04:40:00,32.1,32.1,30.19,NNE,18,0.0,1.0,100,0.00,,,0.00,Wunderground v.1.15,2013-01-02 12:40:00,
2013-01-02 04:45:00,32.1,32.1,30.19,NNE,20,0.0,1.0,100,0.00,,,0.00,Wunderground v.1.15,2013-01-02 12:45:00,
2013-01-02 04:55:00,32.0,32.0,30.19,NNE,20,0.0,1.0,100,0.00,,,0.00,Wunderground v.1.15,2013-01-02 12:55:00,
2013-01-02 05:00:00,32.0,32.0,30.19,NNE,20,0.0,1.0,100,0.00,,,0.00,Wunderground v.1.15,2013-01-02 13:00:00,
2013-01-02 05:05:00,32.0,32.0,30.19,NNE,20,0.0,1.0,100,0.00,,,0.00,Wunderground v.1.15,2013-01-02 13:05:00,
2013-01-02 05:10:00,32.0,32.0,30.19,NNE,20,0.0,1.0,100,0.00,,,0.00,Wunderground v.1.15,2013-01-02 13:10:00,
2013-01-02 05:15:00,32.0,32.0,30.19,NNE,19,0.0,1.0,100,0.00,,,0.00,Wunderground v.1.15,2013-01-02 13:15:00,
2013-01-02 05:25:00,31.9,31.9,30.19,NNE,19,0.0,1.0,100,0.00,,,0.00,Wunderground v.1.15,2013-01-02 13:25:00,
2013-01-02 05:30:00,31.9,31.9,30.19,NNE,19,0.0,1.0,100,0.00,,,0.00,Wunderground v.1.15,2013-01-02 13:30:00,
2013-01-02 05:35:00,31.9,31.9,30.19,NNE,19,0.0,1.0,100,0.00,,,0.00,Wunderground v.1.15,2013-01-02 13:35:00,
2013-01-02 05:40:00,32.0,32.0,30.20,NNE,20,0.0,1.0,100,0.00,,,0.00,Wunderground v.1.15,2013-01-02 13:40:00,
2013-01-02 05:45:00,32.0,32.0,30.20,NNE,20,0.0,1.0,100,0.00,,,0.00,Wunderground v.1.15,2013-01-02 13:45:00,
2013-01-02 05:50:00,32.0,32.0,30.20,NNE,20,0.0,1.0,100,0.00,,,0.00,Wunderground v.1.15,2013-01-02 13:50:00,
2013-01-02 06:00:00,32.0,32.0,30.20,NNE,20,0.0,1.0,100,0.00,,,0.00,Wunderground v.1.15,2013-01-02 14:00:00,
2013-01-02 06:05:00,32.1,32.1,30.20,NNE,20,0.0,1.0,100,0.00,,,0.00,Wunderground v.1.15,2013-01-02 14:05:00,
2013-01-02 06:10:00,32.0,32.0,30.20,NNE,20,0.0,1.0,100,0.00,,,0.00,Wunderground v.1.15,2013-01-02 14:10:00,
2013-01-02 06:15:00,32.0,32.0,30.20,NNE,20,0.0,1.0,100,0.00,,,0.00,Wunderground v.1.15,2013-01-02 14:15:00,
2013-01-02 06:20:00,31.9,31.9,30.20,NNE,20,0.0,1.0,100,0.00,,,0.00,Wunderground v.1.15,2013-01-02 14:20:00,
2013-01-02 06:30:00,32.1,32.1,30.20,NNE,20,0.0,1.0,100,0.00,,,0.00,Wunderground v.1.15,2013-01-02 14:30:00,
2013-01-02 06:35:00,32.1,32.1,30.20,NNE,20,0.0,1.0,100,0.00,,,0.00,Wunderground v.1.15,2013-01-02 14:35:00,
2013-01-02 06:40:00,32.1,32.1,30.20,NNE,20,0.0,1.0,100,0.00,,,0.00,Wunderground v.1.15,2013-01-02 14:40:00,
2013-01-02 06:45:00,32.1,32.1,30.20,NNE,20,0.0,1.0,100,0.00,,,0.00,Wunderground v.1.15,2013-01-02 14:45:00,
2013-01-02 06:55:00,32.1,32.1,30.20,NNE,20,0.0,1.0,100,0.00,,,0.00,Wunderground v.1.15,2013-01-02 14:55:00,
2013-01-02 07:00:00,31.9,31.9,30.20,NNE,20,0.0,1.0,100,0.00,,,0.00,Wunderground v.1.15,2013-01-02 15:00:00,
2013-01-02 07:05:00,31.8,31.8,30.20,NNE,20,0.0,1.0,100,0.00,,,0.00,Wunderground v.1.15,2013-01-02 15:05:00,
2013-01-02 07:10:00,31.9,31.9,30.20,NNE,20,0.0,1.0,100,0.00,,,0.00,Wunderground v.1.15,2013-01-02 15:10:00,
2013-01-02 07:15:00,31.9,31.9,30.21,NNE,20,0.0,1.0,100,0.00,,,0.00,Wunderground v.1.15,2013-01-02 15:15:00,
2013-01-02 07:25:00,31.8,31.8,30.21,NNE,21,0.0,1.0,100,0.00,,,0.00,Wunderground v.1.15,2013-01-02 15:25:00,
2013-01-02 07:30:00,31.8,31.8,30.20,NNE,20,0.0,1.0,100,0.00,,,0.00,Wunderground v.1.15,2013-01-02 15:30:00,
2013-01-02 07:35:00,31.8,31.8,30.20,NNE,20,0.0,1.0,100,0.00,,,0.00,Wunderground v.1.15,2013-01-02 15:35:00,
2013-01-02 07:40:00,31.7,31.7,30.20,NNE,20,0.0,1.0,100,0.00,,,0.00,Wunderground v.1.15,2013-01-02 15:40:00,
2013-01-02 07:45:00,31.7,31.7,30.20,NNE,20,0.0,1.0,100,0.00,,,0.00,Wunderground v.1.15,2013-01-02 15:45:00,
2013-01-02 07:50:00,31.6,31.6,30.20,NNE,20,0.0,1.0,100,0.00,,,0.00,Wunderground v.1.15,2013-01-02 15:50:00,
2013-01-02 07:55:00,31.6,31.6,30.20,NNE,20,0.0,1.0,100,0.00,,,0.00,Wunderground v.1.15,2013-01-02 15:55:00,
2013-01-02 08:05:00,31.6,31.6,30.20,NNE,21,0.0,1.0,100,0.00,,,0.00,Wunderground v.1.15,2013-01-02 16:05:00,
2013-01-02 08:10:00,31.7,31.7,30.20,NNE,21,0.0,1.0,100,0.00,,,0.00,Wunderground v.1.15,2013-01-02 16:10:00,
2013-01-02 08:15:00,31.8,31.8,30.20,NNE,21,0.0,1.0,100,0.00,,,0.00,Wunderground v.1.15,2013-01-02 16:15:00,
2013-01-02 08:20:00,31.8,31.8,30.21,NNE,21,0.0,1.0,100,0.00,,,0.00,Wunderground v.1.15,2013-01-02 16:20:00,
2013-01-02 08:25:00,31.8,31.8,30.21,NNE,12,0.0,1.0,100,0.00,,,0.00,Wunderground v.1.15,2013-01-02 16:25:00,
2013-01-02 08:35:00,31.7,31.7,30.21,NNE,12,0.0,1.0,100,0.00,,,0.00,Wunderground v.1.15,2013-01-02 16:35:00,
2013-01-02 08:40:00,31.7,31.7,30.21,NNE,12,0.0,1.0,100,0.00,,,0.00,Wunderground v.1.15,2013-01-02 16:40:00,
2013-01-02 08:45:00,31.7,31.7,30.21,NNE,12,0.0,1.0,100,0.00,,,0.00,Wunderground v.1.15,2013-01-02 16:45:00,
2013-01-02 08:50:00,31.8,31.8,30.21,NNE,12,0.0,1.0,100,0.00,,,0.00,Wunderground v.1.15,2013-01-02 16:50:00,
2013-01-02 08:55:00,31.9,31.9,30.22,NNE,12,0.0,1.0,100,0.00,,,0.00,Wunderground v.1.15,2013-01-02 16:55:00,
2013-01-02 09:00:00,32.0,32.0,30.22,NNE,12,0.0,1.0,100,0.00,,,0.00,Wunderground v.1.15,2013-01-02 17:00:00,
2013-01-02 09:05:00,32.1,32.1,30.22,NNE,12,0.0,1.0,100,0.00,,,0.00,Wunderground v.1.15,2013-01-02 17:05:00,
2013-01-02 09:15:00,32.1,32.1,30.22,NNE,14,0.0,1.0,100,0.00,,,0.00,Wunderground v.1.15,2013-01-02 17:15:00,
2013-01-02 09:20:00,32.2,32.2,30.22,NNE,14,0.0,1.0,100,0.00,,,0.00,Wunderground v.1.15,2013-01-02 17:20:00,
2013-01-02 09:25:00,32.3,32.3,30.22,NNE,14,0.0,1.0,100,0.00,,,0.00,Wunderground v.1.15,2013-01-02 17:25:00,
2013-01-02 09:30:00,32.5,32.5,30.22,NNE,14,0.0,1.0,100,0.00,,,0.00,Wunderground v.1.15,2013-01-02 17:30:00,
2013-01-02 09:35:00,32.9,32.9,30.23,NNE,14,0.0,1.0,100,0.00,,,0.00,Wunderground v.1.15,2013-01-02 17:35:00,
2013-01-02 09:40:00,33.3,33.3,30.23,NNE,14,0.0,1.0,100,0.00,,,0.00,Wunderground v.1.15,2013-01-02 17:40:00,
2013-01-02 09:50:00,33.7,33.7,30.23,NNE,14,0.0,1.0,100,0.00,,,0.00,Wunderground v.1.15,2013-01-02 17:50:00,
2013-01-02 09:55:00,34.1,34.1,30.23,NNE,21,0.0,1.0,100,0.00,,,0.00,Wunderground v.1.15,2013-01-02 17:55:00,
2013-01-02 10:00:00,34.6,34.6,30.23,NNE,22,0.0,1.0,100,0.00,,,0.00,Wunderground v.1.15,2013-01-02 18:00:00,
2013-01-02 10:05:00,35.0,35.0,30.23,NE,56,0.0,1.0,100,0.00,,,0.00,Wunderground v.1.15,2013-01-02 18:05:00,
2013-01-02 10:10:00,35.3,35.3,30.23,NE,56,0.0,1.0,100,0.00,,,0.00,Wunderground v.1.15,2013-01-02 18:10:00,
2013-01-02 10:15:00,35.6,35.6,30.23,NE,56,0.0,1.0,100,0.00,,,0.00,Wunderground v.1.15,2013-01-02 18:15:00,
2013-01-02 10:25:00,36.3,36.3,30.23,ENE,58,0.0,1.0,100,0.00,,,0.00,Wunderground v.1.15,2013-01-02 18:25:00,
2013-01-02 10:35:00,37.0,37.0,30.23,ENE,58,0.0,1.0,100,0.00,,,0.00,Wunderground v.1.15,2013-01-02 18:35:00,
2013-01-02 10:40:00,37.5,37.5,30.23,ENE,58,0.0,1.0,100,0.00,,,0.01,Wunderground v.1.15,2013-01-02 18:40:00,
2013-01-02 10:45:00,38.0,38.0,30.23,NE,56,0.0,1.0,100,0.00,,,0.01,Wunderground v.1.15,2013-01-02 18:45:00,
2013-01-02 10:55:00,38.1,38.1,30.23,NE,56,0.0,1.0,100,0.00,,,0.01,Wunderground v.1.15,2013-01-02 18:55:00,
2013-01-02 11:00:00,38.4,38.4,30.22,NE,56,0.0,1.0,100,0.00,,,0.01,Wunderground v.1.15,2013-01-02 19:00:00,
2013-01-02 11:05:00,38.5,38.5,30.22,East,100,0.0,1.0,100,0.00,,,0.01,Wunderground v.1.15,2013-01-02 19:05:00,
2013-01-02 13:25:00,42.4,42.4,30.14,South,186,0.0,0.0,100,0.00,,,0.01,Wunderground v.1.15,2013-01-02 21:25:00,
2013-01-02 13:30:00,42.5,42.5,30.14,South,186,0.0,0.0,100,0.00,,,0.01,Wunderground v.1.15,2013-01-02 21:30:00,
2013-01-02 13:40:00,42.7,42.7,30.14,South,186,0.0,0.0,100,0.00,,,0.01,Wunderground v.1.15,2013-01-02 21:40:00,
2013-01-02 13:45:00,42.8,42.8,30.14,South,186,0.0,0.0,100,0.00,,,0.01,Wunderground v.1.15,2013-01-02 21:45:00,
2013-01-02 13:50:00,42.9,42.9,30.13,South,186,0.0,0.0,100,0.00,,,0.01,Wunderground v.1.15,2013-01-02 21:50:00,
2013-01-02 14:00:00,43.0,43.0,30.13,South,186,0.0,0.0,100,0.00,,,0.01,Wunderground v.1.15,2013-01-02 22:00:00,
2013-01-02 14:05:00,42.8,42.8,30.13,South,186,0.0,0.0,100,0.00,,,0.01,Wunderground v.1.15,2013-01-02 22:05:00,
2013-01-02 14:10:00,42.7,42.7,30.13,South,186,0.0,0.0,100,0.00,,,0.01,Wunderground v.1.15,2013-01-02 22:10:00,
2013-01-02 14:20:00,42.8,42.8,30.12,South,186,0.0,0.0,100,0.00,,,0.01,Wunderground v.1.15,2013-01-02 22:20:00,
2013-01-02 14:25:00,42.7,42.7,30.12,South,186,0.0,0.0,100,0.00,,,0.01,Wunderground v.1.15,2013-01-02 22:25:00,
2013-01-02 14:30:00,42.5,42.5,30.12,South,186,0.0,0.0,100,0.00,,,0.01,Wunderground v.1.15,2013-01-02 22:30:00,
2013-01-02 14:35:00,42.5,42.5,30.12,South,186,0.0,0.0,100,0.00,,,0.01,Wunderground v.1.15,2013-01-02 22:35:00,
2013-01-02 14:45:00,42.4,42.4,30.12,South,186,0.0,0.0,100,0.00,,,0.01,Wunderground v.1.15,2013-01-02 22:45:00,
2013-01-02 14:50:00,42.5,42.5,30.12,South,186,0.0,0.0,100,0.00,,,0.01,Wunderground v.1.15,2013-01-02 22:50:00,
2013-01-02 14:55:00,42.5,42.5,30.12,South,186,0.0,0.0,100,0.00,,,0.01,Wunderground v.1.15,2013-01-02 22:55:00,
2013-01-02 15:00:00,42.6,42.6,30.12,South,186,0.0,0.0,100,0.00,,,0.01,Wunderground v.1.15,2013-01-02 23:00:00,
2013-01-02 15:05:00,42.5,42.5,30.12,South,186,0.0,0.0,100,0.00,,,0.01,Wunderground v.1.15,2013-01-02 23:05:00,
2013-01-02 15:15:00,42.2,42.2,30.12,South,186,0.0,0.0,100,0.00,,,0.01,Wunderground v.1.15,2013-01-02 23:15:00,
2013-01-02 15:20:00,42.2,42.2,30.12,South,186,0.0,0.0,100,0.00,,,0.01,Wunderground v.1.15,2013-01-02 23:20:00,
2013-01-02 15:25:00,42.1,42.1,30.12,South,186,0.0,0.0,100,0.00,,,0.01,Wunderground v.1.15,2013-01-02 23:25:00,
2013-01-02 15:30:00,42.1,42.1,30.12,South,186,0.0,0.0,100,0.00,,,0.01,Wunderground v.1.15,2013-01-02 23:30:00,
2013-01-02 15:35:00,42.0,42.0,30.12,South,186,0.0,0.0,100,0.00,,,0.01,Wunderground v.1.15,2013-01-02 23:35:00,
2013-01-02 15:45:00,41.8,41.8,30.12,South,186,0.0,0.0,100,0.00,,,0.01,Wunderground v.1.15,2013-01-02 23:45:00,
2013-01-02 15:50:00,41.7,41.7,30.11,South,186,0.0,0.0,100,0.00,,,0.01,Wunderground v.1.15,2013-01-02 23:50:00,
2013-01-02 15:55:00,41.7,41.7,30.11,South,186,0.0,0.0,100,0.00,,,0.01,Wunderground v.1.15,2013-01-02 23:55:00,
2013-01-02 16:00:00,41.6,41.6,30.11,South,186,0.0,0.0,100,0.00,,,0.01,Wunderground v.1.15,2013-01-03 00:00:00,
2013-01-02 16:10:00,41.5,41.5,30.11,South,186,0.0,0.0,100,0.00,,,0.01,Wunderground v.1.15,2013-01-03 00:10:00,
2013-01-02 16:15:00,41.5,41.5,30.11,South,186,0.0,0.0,100,0.00,,,0.01,Wunderground v.1.15,2013-01-03 00:15:00,
2013-01-02 16:25:00,41.3,41.3,30.10,South,186,0.0,0.0,100,0.00,,,0.01,Wunderground v.1.15,2013-01-03 00:25:00,
2013-01-02 16:40:00,40.4,40.4,30.10,South,184,0.0,0.0,100,0.00,,,0.01,Wunderground v.1.15,2013-01-03 00:40:00,
2013-01-02 16:45:00,40.2,40.2,30.10,South,184,0.0,0.0,100,0.00,,,0.01,Wunderground v.1.15,2013-01-03 00:45:00,
2013-01-02 16:55:00,39.6,39.6,30.10,South,184,0.0,0.0,100,0.00,,,0.01,Wunderground v.1.15,2013-01-03 00:55:00,
2013-01-02 17:00:00,39.3,39.3,30.10,South,184,0.0,0.0,100,0.00,,,0.01,Wunderground v.1.15,2013-01-03 01:00:00,
2013-01-02 17:10:00,38.9,38.9,30.10,South,184,0.0,0.0,100,0.00,,,0.01,Wunderground v.1.15,2013-01-03 01:10:00,
2013-01-02 17:15:00,38.7,38.7,30.10,South,184,0.0,0.0,100,0.00,,,0.01,Wunderground v.1.15,2013-01-03 01:15:00,
2013-01-02 17:20:00,38.4,38.4,30.10,South,184,0.0,0.0,100,0.00,,,0.01,Wunderground v.1.15,2013-01-03 01:20:00,
2013-01-02 17:25:00,38.3,38.3,30.10,SSE,156,0.0,0.0,100,0.00,,,0.01,Wunderground v.1.15,2013-01-03 01:25:00,
2013-01-02 17:30:00,38.3,38.3,30.10,SSE,156,0.0,0.0,100,0.00,,,0.01,Wunderground v.1.15,2013-01-03 01:30:00,
2013-01-02 17:40:00,37.9,37.9,30.10,SSE,156,0.0,0.0,100,0.00,,,0.01,Wunderground v.1.15,2013-01-03 01:40:00,
2013-01-02 17:45:00,37.6,37.6,30.10,SSE,156,0.0,0.0,100,0.00,,,0.01,Wunderground v.1.15,2013-01-03 01:45:00,
2013-01-02 17:55:00,37.2,37.2,30.10,SSE,156,0.0,0.0,100,0.00,,,0.01,Wunderground v.1.15,2013-01-03 01:55:00,
2013-01-02 18:00:00,37.2,37.2,30.10,SSE,156,0.0,0.0,100,0.00,,,0.01,Wunderground v.1.15,2013-01-03 02:00:00,
2013-01-02 18:10:00,37.0,37.0,30.11,SSE,156,0.0,0.0,100,0.00,,,0.01,Wunderground v.1.15,2013-01-03 02:10:00,
2013-01-02 18:15:00,37.0,37.0,30.10,SSE,156,0.0,0.0,100,0.00,,,0.01,Wunderground v.1.15,2013-01-03 02:15:00,
2013-01-02 18:20:00,37.1,37.1,30.10,SSE,153,0.0,0.0,100,0.00,,,0.01,Wunderground v.1.15,2013-01-03 02:20:00,
2013-01-02 18:25:00,37.0,37.0,30.11,SSE,153,0.0,0.0,100,0.00,,,0.01,Wunderground v.1.15,2013-01-03 02:25:00,
2013-01-02 18:30:00,36.9,36.9,30.11,SSE,153,0.0,0.0,100,0.00,,,0.01,Wunderground v.1.15,2013-01-03 02:30:00,
2013-01-02 18:40:00,36.9,36.9,30.11,ESE,121,0.0,0.0,100,0.00,,,0.01,Wunderground v.1.15,2013-01-03 02:40:00,
2013-01-02 18:45:00,36.8,36.8,30.11,ESE,121,0.0,0.0,100,0.00,,,0.01,Wunderground v.1.15,2013-01-03 02:45:00,
2013-01-02 18:50:00,36.7,36.7,30.10,ESE,121,0.0,0.0,100,0.00,,,0.01,Wunderground v.1.15,2013-01-03 02:50:00,
2013-01-02 19:00:00,36.5,36.5,30.11,ESE,121,0.0,0.0,100,0.00,,,0.01,Wunderground v.1.15,2013-01-03 03:00:00,
2013-01-02 19:05:00,36.5,36.5,30.11,East,81,0.0,1.0,100,0.00,,,0.01,Wunderground v.1.15,2013-01-03 03:05:00,
2013-01-02 19:15:00,36.1,36.1,30.11,East,82,0.0,1.0,100,0.00,,,0.01,Wunderground v.1.15,2013-01-03 03:15:00,
2013-01-02 19:20:00,36.0,36.0,30.12,ENE,77,0.0,0.0,100,0.00,,,0.01,Wunderground v.1.15,2013-01-03 03:20:00,
2013-01-02 19:25:00,36.0,36.0,30.12,ENE,77,0.0,0.0,100,0.00,,,0.01,Wunderground v.1.15,2013-01-03 03:25:00,
2013-01-02 19:40:00,35.6,35.6,30.12,East,80,0.0,1.0,100,0.00,,,0.01,Wunderground v.1.15,2013-01-03 03:40:00,
2013-01-02 19:50:00,35.3,35.3,30.12,East,81,0.0,0.0,100,0.00,,,0.01,Wunderground v.1.15,2013-01-03 03:50:00,
2013-01-02 19:55:00,35.2,35.2,30.12,East,81,0.0,0.0,100,0.00,,,0.01,Wunderground v.1.15,2013-01-03 03:55:00,
2013-01-02 20:00:00,35.1,35.1,30.13,East,81,0.0,0.0,100,0.00,,,0.01,Wunderground v.1.15,2013-01-03 04:00:00,
2013-01-02 20:05:00,34.9,34.9,30.12,East,81,0.0,1.0,100,0.00,,,0.01,Wunderground v.1.15,2013-01-03 04:05:00,
2013-01-02 20:15:00,34.8,34.8,30.13,East,82,0.0,1.0,100,0.00,,,0.01,Wunderground v.1.15,2013-01-03 04:15:00,
2013-01-02 20:20:00,34.8,34.8,30.13,ESE,118,0.0,0.0,100,0.00,,,0.01,Wunderground v.1.15,2013-01-03 04:20:00,
2013-01-02 20:25:00,34.8,34.8,30.13,ESE,117,0.0,0.0,100,0.00,,,0.01,Wunderground v.1.15,2013-01-03 04:25:00,
2013-01-02 20:30:00,34.6,34.6,30.13,ESE,117,0.0,0.0,100,0.00,,,0.01,Wunderground v.1.15,2013-01-03 04:30:00,
2013-01-02 20:35:00,34.5,34.5,30.13,ESE,117,0.0,1.0,100,0.00,,,0.01,Wunderground v.1.15,2013-01-03 04:35:00,
2013-01-02 20:45:00,34.3,34.3,30.13,SE,128,0.0,1.0,100,0.00,,,0.01,Wunderground v.1.15,2013-01-03 04:45:00,
2013-01-02 20:50:00,34.2,34.2,30.13,SE,128,0.0,0.0,100,0.00,,,0.01,Wunderground v.1.15,2013-01-03 04:50:00,
2013-01-02 20:55:00,34.2,34.2,30.13,SE,127,0.0,0.0,100,0.00,,,0.01,Wunderground v.1.15,2013-01-03 04:55:00,
2013-01-02 21:05:00,34.1,34.1,30.13,SE,127,0.0,1.0,100,0.00,,,0.01,Wunderground v.1.15,2013-01-03 05:05:00,
2013-01-02 21:10:00,34.1,34.1,30.13,SE,127,0.0,1.0,100,0.00,,,0.01,Wunderground v.1.15,2013-01-03 05:10:00,
2013-01-02 21:15:00,34.1,34.1,30.13,SE,127,0.0,1.0,100,0.00,,,0.01,Wunderground v.1.15,2013-01-03 05:15:00,
2013-01-02 21:20:00,34.1,34.1,30.13,SE,127,0.0,1.0,100,0.00,,,0.01,Wunderground v.1.15,2013-01-03 05:20:00,
2013-01-02 21:30:00,33.9,33.9,30.12,SE,127,0.0,0.0,100,0.00,,,0.01,Wunderground v.1.15,2013-01-03 05:30:00,
2013-01-02 21:35:00,33.9,33.9,30.12,SE,127,0.0,1.0,100,0.00,,,0.01,Wunderground v.1.15,2013-01-03 05:35:00,
2013-01-02 21:40:00,34.0,34.0,30.12,SE,127,0.0,1.0,100,0.00,,,0.01,Wunderground v.1.15,2013-01-03 05:40:00,
2013-01-02 21:45:00,34.0,34.0,30.12,SE,127,0.0,1.0,100,0.00,,,0.01,Wunderground v.1.15,2013-01-03 05:45:00,
2013-01-02 21:50:00,34.1,34.1,30.12,SE,127,0.0,0.0,100,0.00,,,0.01,Wunderground v.1.15,2013-01-03 05:50:00,
2013-01-02 21:55:00,34.0,34.0,30.12,SE,127,0.0,0.0,100,0.00,,,0.01,Wunderground v.1.15,2013-01-03 05:55:00,
2013-01-02 22:00:00,34.0,34.0,30.12,SE,127,0.0,0.0,100,0.00,,,0.01,Wunderground v.1.15,2013-01-03 06:00:00,
2013-01-02 22:05:00,33.9,33.9,30.12,SE,127,0.0,1.0,100,0.00,,,0.01,Wunderground v.1.15,2013-01-03 06:05:00,
2013-01-02 22:10:00,34.0,34.0,30.12,NE,49,0.0,1.0,100,0.00,,,0.01,Wunderground v.1.15,2013-01-03 06:10:00,
2013-01-02 22:15:00,33.9,33.9,30.12,NE,49,0.0,1.0,100,0.00,,,0.01,Wunderground v.1.15,2013-01-03 06:15:00,
2013-01-02 22:20:00,33.7,33.7,30.12,NE,49,0.0,0.0,100,0.00,,,0.01,Wunderground v.1.15,2013-01-03 06:20:00,
2013-01-02 22:30:00,33.3,33.3,30.12,NE,49,0.0,0.0,100,0.00,,,0.01,Wunderground v.1.15,2013-01-03 06:30:00,
2013-01-02 22:40:00,33.2,33.2,30.11,NE,49,0.0,1.0,100,0.00,,,0.01,Wunderground v.1.15,2013-01-03 06:40:00,
2013-01-02 22:45:00,33.3,33.3,30.11,NE,49,0.0,1.0,100,0.00,,,0.01,Wunderground v.1.15,2013-01-03 06:45:00,
2013-01-02 22:50:00,33.5,33.5,30.11,NE,49,0.0,0.0,100,0.00,,,0.01,Wunderground v.1.15,2013-01-03 06:50:00,
2013-01-02 23:00:00,33.9,33.9,30.11,NE,52,0.0,0.0,100,0.00,,,0.01,Wunderground v.1.15,2013-01-03 07:00:00,
2013-01-02 23:05:00,34.2,34.2,30.11,NE,52,0.0,0.0,100,0.00,,,0.01,Wunderground v.1.15,2013-01-03 07:05:00,
2013-01-02 23:10:00,34.4,34.4,30.11,NE,52,0.0,0.0,100,0.00,,,0.01,Wunderground v.1.15,2013-01-03 07:10:00,
2013-01-02 23:15:00,34.7,34.7,30.11,NE,52,0.0,0.0,100,0.00,,,0.01,Wunderground v.1.15,2013-01-03 07:15:00,
2013-01-02 23:20:00,34.9,34.9,30.11,NE,52,0.0,0.0,100,0.00,,,0.01,Wunderground v.1.15,2013-01-03 07:20:00,
2013-01-02 23:30:00,35.1,35.1,30.11,NE,52,0.0,0.0,100,0.00,,,0.01,Wunderground v.1.15,2013-01-03 07:30:00,
2013-01-02 23:35:00,35.2,35.2,30.11,NE,52,0.0,1.0,100,0.00,,,0.01,Wunderground v.1.15,2013-01-03 07:35:00,
2013-01-02 23:40:00,35.3,35.3,30.11,NE,52,0.0,1.0,100,0.00,,,0.01,Wunderground v.1.15,2013-01-03 07:40:00,
2013-01-02 23:45:00,35.3,35.3,30.11,NE,52,0.0,1.0,100,0.00,,,0.01,Wunderground v.1.15,2013-01-03 07:45:00,
2013-01-02 23:50:00,35.4,35.4,30.11,NE,52,0.0,0.0,100,0.00,,,0.01,Wunderground v.1.15,2013-01-03 07:50:00,